Location: Miles
(41.4492°N, 81.6087°W)
Time: 17:59:11
(UTC+00:00)

Transit 2A - Pass Details

Date: 20 September 2024
Orbit: 590 x 960 km, 66.7° (Epoch: 05 October)

Event Time Altitude Azimuth Distance (km) Brightness Sun altitude
Rises 05:16:37 0° 338° (NNW) 3,648 10.1 -47.7°
Reaches altitude 10° 05:21:15 10° 8° (N) 2,672 9.3 -47.7°
Enters shadow 05:22:56 12° 24° (NNE) 2,520 9.1 -47.7°
Maximum altitude 05:23:32 12° 30° (NNE) 2,503 - -47.6°
Drops below altitude 10° 05:25:48 10° 51° (NE) 2,617 - -47.6°
Sets 05:30:11 0° 82° (E) 3,480 - -47.6°
